Temperature
26 26 26 26 25 26 25 25 24 24 24 24 24 24 23 23 22 22 21 21 20 20 19 19 19 18 18 18 18 17 17 17 16 16 16 16 15 15 15 15 15 15 14 14
25 26 26 25 25 25 25 25 25 24 24 24 24 24 23 22 22 21 21 20 20 19 19 19 18 18 18 18 17 17 17 17 16 16 16 15 15 15 15 15 15 14 14 14
24 25 25 24 25 25 25 25 25 24 23 24 23 23 22 22 21 20 20 20 19 19 19 18 18 18 18 17 17 17 17 16 16 16 15 15 15 15 15 15 14 14 14 14
24 24 23 24 25 25 25 25 25 24 23 23 23 22 22 21 20 20 19 19 19 18 18 18 18 18 17 17 17 17 16 16 16 15 15 15 15 14 14 14 14 14 14 14
23 23 23 23 24 25 24 24 24 24 23 23 22 21 21 20 19 19 18 18 18 18 18 18 18 17 17 17 17 16 16 16 15 15 15 15 14 14 14 14 14 14 14 14
23 22 22 23 25 25 24 22 24 23 23 22 22 20 20 19 19 18 18 18 17 17 17 17 17 17 17 17 16 16 15 15 15 15 14 14 14 14 14 14 14 13 13 13
22 22 23 23 24 24 22 22 23 23 22 22 21 20 20 19 18 18 17 17 17 17 17 16 16 16 16 16 16 15 15 15 14 14 14 14 14 13 13 13 13 13 13 13
22 22 22 23 23 22 22 22 22 22 21 20 20 19 19 18 17 17 17 16 16 16 16 16 16 16 16 15 15 15 15 14 14 14 13 13 13 13 13 13 13 13 13 13
22 21 21 22 22 21 21 21 21 20 20 19 19 18 18 17 17 16 16 16 16 15 15 15 15 15 15 15 14 14 14 14 13 13 13 13 13 13 13 12 12 12 12 12
21 21 21 20 20 20 20 20 19 19 19 18 18 18 17 17 17 16 16 15 15 15 15 15 15 14 14 14 14 14 13 13 13 13 13 12 12 12 12 12 12 12 12 12
21 21 20 20 19 19 19 19 18 18 18 18 17 17 17 16 16 16 15 15 15 14 14 14 14 14 14 14 13 13 13 13 13 12 12 12 12 12 12 12 12 12 12 12
20 20 20 19 19 18 18 18 18 17 17 17 17 16 16 16 15 15 15 14 14 14 14 14 13 13 13 13 13 13 12 12 12 12 12 12 11 11 11 11 11 11 11 11
20 19 19 18 18 18 17 17 17 17 16 16 16 15 15 15 15 14 14 14 14 13 13 13 13 13 13 13 12 12 12 12 12 12 12 11 11 11 11 11 11 11 11 11
18 18 18 17 17 17 17 16 16 16 15 15 15 15 14 14 14 14 13 13 13 13 13 12 12 12 12 12 12 12 12 12 11 11 11 11 11 11 11 11 11 11 11 11
17 17 17 16 16 16 16 15 15 15 15 15 14 14 14 13 13 13 13 13 12 12 12 12 12 12 12 12 11 11 11 11 11 11 11 11 11 10 11 10 10 11 11 11
16 16 16 15 15 15 15 15 15 14 14 14 14 13 13 13 12 12 12 12 12 12 11 11 11 11 11 11 11 11 11 11 11 10 10 10 10 10 10 10 10 10 10 10
15 15 15 15 15 14 14 14 14 14 13 13 13 13 12 12 12 12 12 12 11 11 11 11 11 10 10 10 10 10 10 10 10 10 10 10 10 10 10 10 10 10 10 10
14 14 14 14 14 14 13 13 13 13 13 12 12 12 12 12 11 11 11 11 11 10 10 10 10 10 10 9 9 9 9 9 9 9 10 10 9 9 9 9 9 9 10 10
13 13 13 13 13 13 13 12 12 12 12 12 11 11 11 11 11 11 11 10 10 10 10 10 9 9 9 9 9 9 9 9 9 9 9 9 9 9 9 9 9 9 9 9
13 13 12 12 12 12 12 12 11 11 11 11 11 11 10 10 10 10 10 10 10 10 9 9 9 9 9 8 8 8 8 8 8 8 8 8 8 8 9 9 9 9 9 9
12 12 12 11 11 11 11 11 11 10 10 10 10 10 10 10 10 10 10 9 9 9 9 9 8 8 8 8 8 8 8 7 8 8 8 8 8 8 8 8 8 8 8 8
11 11 11 11 11 10 10 10 10 10 10 10 10 10 9 9 9 9 9 9 9 9 8 8 8 8 8 7 7 7 7 7 7 7 7 8 8 8 8 8 8 8 8 8
11 11 10 10 10 10 10 10 10 10 9 9 9 9 9 9 9 9 9 9 8 8 8 8 8 7 7 7 7 7 7 7 7 7 7 7 7 7 7 7 7 7 8 8
10 10 10 10 10 10 9 9 9 9 9 9 9 9 9 8 8 8 8 8 8 8 7 7 7 7 7 6 6 6 6 6 7 7 7 7 7 7 7 7 7 7 7 7
10 10 9 9 9 9 9 9 9 9 9 8 8 8 8 8 8 8 8 8 7 7 7 7 7 6 6 6 6 6 6 6 6 6 6 6 6 6 6 6 6 6 7 7
9 9 9 9 9 8 8 8 8 8 8 8 8 8 8 7 7 7 7 7 7 7 6 6 6 6 6 6 6 6 6 6 6 6 6 6 6 6 6 6 6 6 6 6
8 8 8 8 8 8 8 8 8 8 7 7 7 7 7 7 7 7 7 6 6 6 6 6 5 5 5 5 5 5 5 5 5 5 5 5 5 5 5 5 5 5 5 6
Wind_Speed
3 1 1 2 2 3 3 3 0 4 7 8 7 7 8 7 6 6 6 6 5 4 4 3 2 2 2 2 2 2 2 2 1 1 1 0 1 1 2 2 3 3 2 2
4 4 4 4 4 4 3 2 2 5 5 8 8 8 7 7 6 6 5 5 4 4 3 2 2 2 2 1 1 2 2 2 2 1 1 0 1 2 2 2 3 3 2 2
5 5 5 6 5 5 4 2 1 3 5 8 8 7 6 6 7 6 5 5 4 3 3 2 2 2 2 1 1 1 2 2 2 1 0 1 2 2 2 2 2 3 3 2
5 5 6 2 2 3 3 2 3 6 7 6 8 8 6 6 7 6 5 4 3 3 2 1 2 2 1 1 1 1 2 2 1 0 1 1 2 2 3 3 2 3 3 3
5 6 3 4 4 5 4 3 4 6 7 6 7 7 7 7 7 6 5 4 3 3 2 3 3 2 1 1 1 2 2 2 1 0 1 2 2 3 3 3 3 3 3 3
6 6 4 3 6 4 3 4 5 6 7 6 6 4 4 6 6 6 5 4 4 3 4 4 4 4 3 2 2 2 2 1 1 1 2 3 3 3 2 3 3 3 4 3
9 6 1 6 6 4 3 3 6 6 5 5 3 3 5 6 5 5 4 3 3 3 3 4 4 3 3 3 3 3 1 1 1 2 3 3 3 2 2 3 4 4 4 3
7 7 2 5 5 2 5 7 6 6 6 6 6 6 6 5 4 4 3 3 2 2 2 3 3 3 3 3 3 3 2 2 2 3 3 3 2 3 3 3 4 4 3 3
1 3 6 6 7 7 6 6 6 5 5 6 5 4 4 4 3 3 3 2 2 2 1 2 2 3 3 3 3 3 2 3 3 3 3 2 2 3 3 3 3 3 3 2
2 6 7 6 6 6 5 6 5 5 5 4 4 3 3 2 2 2 2 2 2 1 1 1 1 2 2 3 3 3 3 3 3 3 3 3 2 3 3 3 3 3 3 3
2 4 5 5 4 4 4 4 4 4 3 3 3 2 1 1 1 1 1 1 1 1 2 2 2 1 1 2 3 4 4 4 4 3 3 3 3 3 4 4 4 4 4 3
3 3 2 4 5 5 3 2 2 2 2 2 2 1 1 1 1 1 1 1 1 2 2 2 3 2 2 2 3 4 4 4 3 3 3 3 3 4 4 5 6 6 6 6
3 1 1 3 3 3 2 1 1 1 1 1 1 1 1 1 1 1 1 1 2 2 3 3 3 3 3 2 3 4 4 3 3 3 3 4 4 4 4 5 6 7 8 7
1 1 1 1 1 1 1 1 1 1 1 1 1 1 1 2 2 2 2 2 2 3 3 4 3 4 4 4 4 4 5 4 4 3 4 4 4 4 4 4 4 4 5 8
2 2 2 1 1 1 1 2 2 2 1 1 1 1 2 2 3 3 3 3 2 3 4 4 4 4 4 5 5 5 5 3 3 3 4 5 5 5 5 5 5 4 3 4
4 3 3 4 3 3 3 4 3 3 2 2 2 2 2 3 3 3 3 3 3 3 4 4 4 4 4 5 5 5 5 7 6 5 5 5 5 5 5 5 5 5 5 4
6 6 5 5 4 4 4 3 3 3 3 2 2 3 3 4 4 4 3 3 3 4 4 4 4 4 4 5 5 4 5 6 8 6 5 5 5 5 6 5 6 6 6 6
5 5 4 4 4 4 3 3 3 3 3 3 3 4 4 4 4 4 4 4 4 4 4 4 4 4 5 5 5 5 5 5 5 5 5 5 6 6 6 6 6 7 5 5
4 4 3 3 3 2 2 2 2 3 3 3 4 4 4 4 5 5 5 5 5 5 4 4 6 6 5 6 7 5 5 6 6 6 5 7 7 6 6 6 6 6 6 5
3 3 2 2 2 2 2 2 2 3 3 4 4 5 5 5 5 5 5 5 4 4 4 5 6 6 6 6 7 5 6 7 7 7 6 6 7 6 6 6 7 7 6 5
3 2 2 2 2 2 2 3 3 4 4 4 5 5 6 5 5 5 5 5 4 4 5 6 5 5 5 6 7 6 6 7 8 7 7 7 7 7 7 7 7 7 7 6
3 3 3 3 3 3 3 4 4 4 4 5 5 6 6 6 6 6 6 5 4 5 5 4 4 6 8 9 6 7 7 8 8 7 7 7 7 7 7 7 7 7 7 6
3 3 3 4 4 4 5 5 5 4 4 5 6 6 6 5 5 5 6 4 3 6 5 5 7 11 12 8 7 8 9 9 8 8 8 8 8 7 7 8 7 6 6 6
4 4 4 4 5 5 6 5 5 4 5 5 6 6 6 5 5 5 4 5 6 7 6 8 12 13 12 7 8 8 9 8 8 8 8 8 7 7 7 7 7 6 7 8
5 5 5 4 4 4 5 5 5 5 5 5 6 6 5 4 4 4 4 5 7 8 6 9 13 13 10 8 8 8 8 8 9 8 8 7 7 7 7 7 7 7 7 7
5 4 4 4 4 3 4 4 4 4 4 5 4 4 4 4 4 4 4 5 7 8 7 6 7 9 8 8 8 9 8 9 10 9 8 7 7 7 7 7 9 8 7 7
6 5 4 4 4 3 4 4 4 4 4 4 5 5 4 4 4 5 6 5 5 5 6 6 6 6 7 8 8 8 8 7 7 7 7 7 7 7 8 9 7 7 7 7
Wind_Direction
266 313 253 245 243 252 268 294 51 123 126 130 127 120 117 115 112 108 103 101 104 110 113 119 115 114 116 122 125 126 130 141 158 167 137 264 283 277 283 287 295 296 288 281
249 228 229 245 244 242 247 273 151 134 118 115 110 107 108 109 105 97 90 85 88 93 100 116 115 108 105 104 116 125 119 119 118 109 109 265 295 299 301 305 302 298 291 279
260 213 216 237 227 220 212 212 195 140 126 119 119 111 106 106 105 97 83 78 73 70 74 71 98 116 129 142 116 91 101 100 108 134 147 261 290 301 289 278 279 284 284 277
266 238 232 140 98 134 158 156 119 106 116 122 115 101 91 95 96 94 83 76 68 58 54 49 72 83 106 117 122 108 84 91 91 354 247 251 274 284 277 273 267 271 276 264
257 253 227 170 163 163 163 154 136 129 126 120 119 115 98 88 83 84 75 64 52 33 31 30 54 50 27 119 97 83 65 46 48 324 281 253 257 268 281 290 284 272 270 262
262 258 253 142 138 141 170 160 143 140 135 138 139 140 116 98 89 82 73 61 44 25 28 30 29 24 3 9 53 53 49 8 356 310 275 255 248 258 274 283 276 275 272 263
258 258 184 102 118 148 190 135 124 123 126 130 129 99 103 97 86 83 80 69 50 36 32 27 15 8 354 14 23 12 8 346 312 284 279 270 253 251 266 273 277 274 273 271
233 242 201 119 145 140 94 92 99 102 99 101 91 88 95 100 92 83 77 73 61 46 32 23 8 357 356 14 9 357 342 301 279 266 267 280 270 262 257 262 268 273 282 288
21 85 81 87 83 74 85 91 83 85 94 101 104 102 102 107 107 93 74 59 54 54 25 15 8 359 352 354 353 339 319 301 291 288 279 275 268 268 269 263 265 271 275 277
116 121 108 95 88 79 74 80 73 70 74 90 98 100 107 104 100 88 71 45 23 13 351 348 351 352 349 341 335 324 308 297 290 289 295 291 289 272 268 266 265 266 270 271
235 140 126 131 119 106 88 88 89 77 70 71 83 80 70 65 72 73 57 41 2 332 324 325 328 339 339 329 323 315 306 295 293 289 281 284 278 271 268 262 256 255 255 253
233 179 172 149 132 124 119 109 102 96 78 65 63 52 20 9 33 41 38 3 329 323 323 323 327 326 329 321 312 305 302 307 305 299 287 278 280 290 289 271 273 267 252 250
294 341 62 102 120 130 137 134 136 137 98 47 39 21 345 341 353 349 335 327 325 327 323 321 320 322 325 318 301 296 298 301 301 297 293 281 273 269 284 299 291 275 264 253
37 73 151 148 143 160 183 214 258 290 305 307 331 342 335 324 321 317 311 315 319 316 313 315 316 317 320 318 311 302 298 295 294 284 282 280 274 269 265 264 273 281 273 253
230 229 214 195 202 232 235 244 247 249 263 278 316 313 310 306 307 309 309 311 312 303 306 310 309 311 318 317 313 306 300 289 285 284 283 280 276 272 267 264 259 262 269 270
229 228 221 222 224 235 240 242 246 254 267 275 282 292 302 303 299 293 293 300 297 291 293 295 299 307 314 315 310 302 296 288 282 276 275 277 276 274 272 266 263 255 248 247
227 228 225 223 227 237 241 249 260 266 270 277 289 299 297 293 288 287 291 293 291 286 289 295 301 307 310 309 305 295 289 288 282 274 269 270 273 274 274 269 266 261 252 238
228 231 233 237 235 238 242 250 263 273 277 286 291 284 279 281 284 286 287 288 287 284 286 293 302 304 300 302 300 291 286 284 283 277 273 272 273 271 272 273 274 271 270 247
217 217 220 234 241 248 252 261 272 279 284 284 282 280 282 282 283 283 283 280 280 280 282 289 296 292 290 291 294 285 286 287 288 283 278 277 276 271 269 270 272 271 269 257
206 205 209 222 232 235 248 265 277 281 280 279 279 278 277 278 282 284 283 280 272 272 283 294 292 288 285 285 295 287 286 285 285 285 281 276 273 273 272 268 267 268 267 258
199 202 212 231 253 260 258 261 266 270 276 280 280 280 281 282 282 283 284 282 279 285 289 287 282 279 282 291 291 283 281 280 279 277 275 274 274 272 271 271 268 265 264 260
211 213 224 235 247 258 259 260 262 268 276 280 283 284 286 284 283 281 273 268 272 281 285 279 279 283 291 294 280 275 274 274 273 271 271 270 269 270 269 270 270 266 262 258
238 239 242 248 258 267 272 270 268 271 275 279 282 282 281 281 280 280 281 276 274 282 287 282 285 289 290 286 274 271 268 268 267 266 266 266 267 267 266 267 268 269 266 260
258 257 258 258 262 267 269 272 275 275 272 274 273 276 279 278 276 272 276 284 285 283 281 281 284 284 285 277 272 269 267 266 264 263 264 264 264 267 270 270 268 266 269 267
268 266 265 268 267 268 276 282 282 277 274 271 273 277 280 276 275 279 283 288 294 291 284 286 288 286 281 275 273 272 272 269 268 268 263 262 260 261 265 266 268 269 267 263
271 271 270 268 267 264 268 269 269 273 276 277 277 281 284 285 287 290 287 284 286 293 292 287 286 285 285 283 281 280 277 275 273 267 261 262 260 261 264 266 267 267 267 264
272 270 262 257 256 256 261 263 264 268 272 276 282 285 289 293 293 291 290 290 291 292 295 296 295 293 292 289 285 283 281 276 272 271 270 266 261 259 261 263 264 265 266 267
Height
1466 1464 1465 1468 1470 1470 1473 1475 1481 1482 1483 1484 1485 1487 1491 1494 1496 1499 1501 1502 1504 1506 1507 1508 1509 1510 1510 1511 1511 1511 1511 1511 1511 1511 1511 1511 1511 1510 1510 1510 1509 1508 1507 1507
1469 1465 1466 1470 1469 1470 1472 1473 1476 1479 1484 1481 1485 1488 1491 1494 1497 1499 1501 1503 1504 1506 1507 1507 1508 1509 1510 1510 1510 1510 1510 1510 1510 1509 1509 1509 1509 1508 1508 1507 1507 1506 1505 1505
1474 1466 1470 1477 1469 1470 1471 1472 1475 1482 1484 1482 1486 1489 1492 1495 1497 1500 1502 1503 1504 1505 1506 1507 1508 1508 1508 1509 1509 1509 1509 1508 1508 1508 1507 1507 1506 1506 1505 1505 1504 1504 1503 1502
1473 1474 1488 1475 1463 1465 1470 1472 1473 1477 1481 1483 1487 1491 1494 1496 1498 1500 1502 1503 1504 1505 1505 1506 1506 1507 1507 1508 1508 1508 1507 1506 1506 1505 1505 1504 1504 1503 1503 1502 1502 1501 1500 1499
1474 1478 1476 1471 1466 1467 1472 1476 1474 1478 1482 1485 1488 1492 1496 1498 1499 1501 1502 1503 1504 1505 1505 1505 1505 1506 1506 1506 1506 1506 1505 1505 1504 1503 1502 1502 1501 1500 1500 1499 1499 1498 1497 1496
1474 1482 1484 1472 1464 1466 1472 1480 1476 1479 1483 1486 1489 1493 1497 1498 1499 1501 1502 1502 1503 1504 1504 1504 1504 1505 1505 1505 1504 1503 1503 1502 1502 1501 1500 1499 1498 1498 1497 1497 1496 1495 1494 1493
1477 1477 1473 1468 1467 1469 1482 1482 1477 1480 1483 1486 1489 1492 1496 1497 1499 1500 1501 1502 1502 1503 1503 1503 1503 1503 1503 1503 1502 1501 1501 1500 1499 1498 1497 1496 1496 1495 1494 1493 1493 1492 1491 1490
1472 1478 1479 1469 1469 1473 1477 1476 1478 1481 1484 1487 1490 1493 1495 1497 1498 1499 1500 1501 1501 1501 1502 1502 1502 1501 1501 1501 1500 1499 1498 1497 1496 1495 1494 1493 1492 1492 1491 1490 1490 1489 1488 1487
1467 1474 1471 1470 1472 1475 1476 1478 1481 1484 1486 1488 1491 1493 1495 1496 1498 1499 1499 1499 1500 1500 1500 1500 1500 1500 1499 1498 1497 1496 1495 1494 1493 1492 1491 1490 1489 1488 1487 1487 1486 1485 1485 1484
1467 1470 1472 1474 1475 1477 1479 1481 1483 1485 1487 1489 1491 1493 1494 1496 1497 1497 1498 1498 1498 1498 1498 1498 1498 1497 1497 1496 1495 1494 1492 1491 1490 1489 1488 1487 1486 1485 1484 1483 1483 1482 1481 1480
1467 1470 1472 1475 1477 1478 1480 1482 1484 1486 1488 1489 1490 1492 1493 1494 1495 1496 1496 1496 1496 1496 1496 1496 1496 1495 1494 1493 1492 1491 1490 1489 1487 1486 1485 1484 1482 1481 1480 1480 1479 1478 1477 1477
1468 1468 1471 1474 1476 1478 1481 1483 1484 1486 1488 1489 1490 1491 1492 1493 1493 1494 1494 1494 1494 1494 1494 1494 1493 1492 1491 1490 1489 1488 1487 1485 1484 1483 1481 1480 1479 1477 1476 1476 1475 1474 1474 1473
1467 1468 1470 1473 1476 1478 1480 1482 1484 1485 1486 1488 1489 1490 1490 1491 1491 1492 1492 1492 1492 1491 1491 1491 1490 1489 1488 1487 1486 1485 1483 1482 1481 1479 1478 1476 1474 1473 1471 1470 1470 1469 1469 1468
1467 1469 1471 1473 1475 1477 1479 1481 1482 1483 1485 1486 1487 1488 1488 1489 1489 1489 1489 1489 1489 1489 1488 1488 1487 1486 1485 1484 1482 1481 1480 1478 1477 1475 1474 1472 1470 1469 1467 1466 1464 1463 1463 1463
1467 1469 1470 1472 1474 1476 1478 1479 1480 1481 1483 1484 1484 1485 1486 1486 1486 1486 1486 1486 1486 1485 1485 1484 1483 1482 1481 1480 1478 1477 1475 1474 1472 1471 1469 1468 1466 1465 1463 1462 1460 1459 1458 1457
1465 1467 1469 1470 1472 1474 1475 1477 1478 1479 1480 1481 1481 1482 1482 1483 1483 1483 1483 1482 1482 1481 1481 1480 1479 1478 1477 1475 1474 1472 1470 1469 1468 1466 1464 1463 1461 1460 1458 1456 1455 1454 1452 1451
1463 1464 1466 1468 1469 1471 1473 1474 1475 1476 1477 1478 1478 1479 1479 1479 1479 1479 1479 1479 1478 1478 1477 1476 1475 1473 1472 1471 1469 1467 1466 1464 1463 1461 1459 1458 1456 1455 1453 1451 1450 1448 1447 1446
1460 1462 1464 1465 1467 1468 1470 1471 1472 1473 1474 1474 1475 1475 1475 1475 1475 1475 1475 1474 1474 1473 1472 1472 1470 1469 1467 1466 1464 1463 1461 1459 1458 1456 1454 1452 1451 1449 1447 1446 1444 1443 1441 1440
1457 1459 1461 1462 1464 1465 1467 1468 1469 1470 1470 1471 1471 1472 1471 1471 1471 1471 1471 1470 1469 1468 1467 1466 1465 1464 1462 1461 1459 1457 1455 1454 1452 1450 1449 1447 1445 1443 1442 1440 1438 1437 1435 1434
1455 1457 1458 1460 1461 1463 1464 1465 1466 1466 1467 1467 1468 1468 1467 1467 1467 1467 1466 1465 1464 1463 1462 1461 1460 1458 1457 1455 1454 1451 1450 1448 1446 1444 1443 1441 1439 1437 1436 1434 1432 1431 1429 1428
1453 1455 1456 1457 1459 1460 1461 1462 1462 1463 1463 1464 1464 1463 1463 1463 1462 1462 1461 1460 1459 1458 1457 1456 1454 1452 1451 1449 1447 1445 1443 1441 1440 1438 1436 1435 1433 1431 1429 1428 1426 1425 1423 1422
1451 1453 1454 1455 1456 1457 1458 1458 1459 1459 1459 1459 1459 1459 1459 1458 1457 1457 1456 1455 1454 1453 1451 1450 1448 1446 1445 1443 1441 1438 1436 1435 1433 1431 1429 1428 1426 1424 1423 1421 1419 1418 1416 1415
1449 1450 1451 1452 1453 1454 1454 1455 1455 1455 1455 1455 1455 1454 1454 1453 1452 1451 1450 1449 1448 1447 1445 1444 1442 1440 1438 1435 1433 1431 1429 1427 1425 1424 1422 1420 1419 1417 1416 1414 1412 1411 1409 1408
1447 1447 1448 1449 1450 1450 1450 1451 1451 1451 1451 1450 1450 1450 1449 1448 1447 1446 1445 1444 1443 1441 1439 1437 1435 1433 1431 1428 1426 1424 1421 1419 1417 1416 1414 1413 1411 1410 1408 1407 1405 1404 1402 1401
1444 1444 1445 1445 1446 1446 1446 1446 1446 1446 1446 1445 1445 1444 1444 1443 1442 1441 1439 1438 1437 1435 1433 1430 1428 1426 1423 1420 1418 1416 1414 1412 1410 1408 1406 1405 1403 1402 1400 1399 1398 1396 1395 1393
1440 1441 1441 1441 1442 1442 1442 1442 1442 1441 1441 1440 1440 1439 1439 1438 1436 1435 1434 1432 1430 1428 1426 1424 1421 1419 1416 1413 1411 1408 1406 1404 1402 1400 1398 1397 1395 1393 1392 1391 1390 1389 1387 1386
1436 1436 1437 1437 1437 1437 1437 1437 1437 1436 1436 1435 1435 1434 1433 1432 1431 1429 1428 1426 1424 1422 1420 1417 1415 1412 1409 1406 1403 1400 1398 1396 1394 1392 1390 1389 1387 1386 1384 1383 1382 1381 1379 1378